Location: Drocourt
(49.0571°N, 1.7669°E)
Time: 14:56:35
(UTC+00:00)

Vanguard 2 Rocket - Pass Details

Date: 19 April 2024
Orbit: 556 x 3304 km, 32.9° (Epoch: 22 May)

Event Time Altitude Azimuth Distance (km) Brightness Sun altitude
Rises 22:43:12 0° 243° (WSW) 6,632 11.2 -27.5°
Reaches altitude 10° 22:47:32 10° 238° (WSW) 5,863 10.8 -27.7°
Maximum altitude 23:05:14 47° 173° (S) 3,999 9.6 -28.5°
Drops below altitude 10° 23:22:13 10° 108° (ESE) 5,651 10.7 -29.0°
Sets 23:26:17 0° 103° (ESE) 6,387 11.0 -29.1°
